Time,TemperatureF,DewpointF,PressureIn,WindDirection,WindDirectionDegrees,WindSpeedMPH,WindSpeedGustMPH,Humidity,HourlyPrecipIn,Conditions,Clouds,dailyrainin,SolarRadiationWatts/m^2,SoftwareType,DateUTC
2013-05-01 00:01:00,58.3,56.3,30.13,East,90,4.6,4.6,93,0.00,CLR,,0.00,0.0,WeatherDisplay:10.37,2013-05-01 04:01:00,
2013-05-01 00:02:00,58.4,56.7,30.14,East,90,5.0,5.0,94,0.00,CLR,,0.00,0.0,WeatherDisplay:10.37,2013-05-01 04:02:00,
2013-05-01 00:07:00,58.4,56.7,30.14,East,94,4.6,4.6,94,0.00,CLR,,0.00,0.0,WeatherDisplay:10.37,2013-05-01 04:07:00,
2013-05-01 00:12:00,58.5,56.8,30.14,East,94,4.6,4.6,94,0.00,CLR,,0.00,0.0,WeatherDisplay:10.37,2013-05-01 04:12:00,
2013-05-01 00:17:00,58.6,56.9,30.14,East,96,6.9,6.9,94,0.00,CLR,,0.00,0.0,WeatherDisplay:10.37,2013-05-01 04:17:00,
2013-05-01 00:22:00,58.7,57.3,30.14,ESE,111,7.0,7.0,95,0.00,CLR,,0.00,0.0,WeatherDisplay:10.37,2013-05-01 04:22:00,
2013-05-01 00:27:00,58.8,57.1,30.14,East,93,7.0,7.0,94,0.00,CLR,,0.00,0.0,WeatherDisplay:10.37,2013-05-01 04:27:00,
2013-05-01 00:32:00,58.9,57.5,30.14,East,97,3.5,3.5,95,0.00,CLR,,0.00,0.0,WeatherDisplay:10.37,2013-05-01 04:32:00,
2013-05-01 00:37:00,59.0,57.6,30.15,East,96,4.6,4.6,95,0.00,CLR,,0.00,0.0,WeatherDisplay:10.37,2013-05-01 04:37:00,
2013-05-01 00:42:00,59.0,57.3,30.15,East,81,4.0,4.0,94,0.00,CLR,,0.00,0.0,WeatherDisplay:10.37,2013-05-01 04:42:00,
2013-05-01 00:47:00,59.0,57.3,30.15,East,94,6.9,6.9,94,0.00,CLR,,0.00,0.0,WeatherDisplay:10.37,2013-05-01 04:47:00,
2013-05-01 00:52:00,59.1,57.7,30.15,East,92,6.9,6.9,95,0.00,CLR,,0.00,0.0,WeatherDisplay:10.37,2013-05-01 04:52:00,
2013-05-01 00:57:00,59.1,57.4,30.15,East,87,6.9,6.9,94,0.00,CLR,,0.00,0.0,WeatherDisplay:10.37,2013-05-01 04:57:00,
2013-05-01 01:02:00,59.1,57.4,30.15,East,89,5.8,5.8,94,0.00,CLR,,0.00,0.0,WeatherDisplay:10.37,2013-05-01 05:02:00,
2013-05-01 01:07:00,59.1,57.4,30.15,East,90,6.9,6.9,94,0.00,CLR,,0.00,0.0,WeatherDisplay:10.37,2013-05-01 05:07:00,
2013-05-01 01:12:00,59.2,57.5,30.15,East,90,4.6,4.6,94,0.00,CLR,,0.00,0.0,WeatherDisplay:10.37,2013-05-01 05:12:00,
2013-05-01 01:17:00,59.1,57.4,30.15,ESE,118,9.2,9.2,94,0.00,CLR,,0.00,0.0,WeatherDisplay:10.37,2013-05-01 05:17:00,
2013-05-01 01:22:00,59.2,57.5,30.15,ESE,106,9.0,9.0,94,0.00,CLR,,0.00,0.0,WeatherDisplay:10.37,2013-05-01 05:22:00,
2013-05-01 01:27:00,59.3,57.6,30.15,East,96,6.9,6.9,94,0.00,CLR,,0.00,0.0,WeatherDisplay:10.37,2013-05-01 05:27:00,
2013-05-01 01:32:00,59.5,57.8,30.15,ENE,77,5.8,5.8,94,0.00,CLR,,0.00,0.0,WeatherDisplay:10.37,2013-05-01 05:32:00,
2013-05-01 01:37:00,59.5,58.1,30.15,East,90,5.8,5.8,95,0.00,CLR,,0.00,0.0,WeatherDisplay:10.37,2013-05-01 05:37:00,
2013-05-01 01:43:00,59.6,57.9,30.15,East,89,6.9,6.9,94,0.00,CLR,,0.00,0.0,WeatherDisplay:10.37,2013-05-01 05:43:00,
2013-05-01 01:48:00,59.6,57.9,30.15,East,87,5.8,5.8,94,0.00,CLR,,0.00,0.0,WeatherDisplay:10.37,2013-05-01 05:48:00,
2013-05-01 01:53:00,59.6,57.9,30.15,East,82,5.8,5.8,94,0.00,CLR,,0.00,0.0,WeatherDisplay:10.37,2013-05-01 05:53:00,
2013-05-01 01:58:00,59.6,57.9,30.15,East,88,5.0,5.0,94,0.00,CLR,,0.00,0.0,WeatherDisplay:10.37,2013-05-01 05:58:00,
2013-05-01 02:03:00,59.6,57.9,30.15,East,96,9.2,9.2,94,0.00,CLR,,0.00,0.0,WeatherDisplay:10.37,2013-05-01 06:03:00,
2013-05-01 02:08:00,59.7,58.0,30.14,East,82,4.6,4.6,94,0.00,CLR,,0.00,0.0,WeatherDisplay:10.37,2013-05-01 06:08:00,
2013-05-01 02:13:00,59.8,58.1,30.14,East,84,4.6,4.6,94,0.00,CLR,,0.00,0.0,WeatherDisplay:10.37,2013-05-01 06:13:00,
2013-05-01 02:18:00,59.8,58.1,30.14,East,84,5.8,5.8,94,0.00,CLR,,0.00,0.0,WeatherDisplay:10.37,2013-05-01 06:18:00,
2013-05-01 02:23:00,59.8,58.1,30.14,East,84,4.6,4.6,94,0.00,CLR,,0.00,0.0,WeatherDisplay:10.37,2013-05-01 06:23:00,
2013-05-01 02:28:00,59.9,58.2,30.14,East,84,3.5,3.5,94,0.00,CLR,,0.00,0.0,WeatherDisplay:10.37,2013-05-01 06:28:00,
2013-05-01 02:33:00,60.0,58.3,30.14,East,84,3.5,3.5,94,0.00,CLR,,0.00,0.0,WeatherDisplay:10.37,2013-05-01 06:33:00,
2013-05-01 02:38:00,60.0,58.3,30.14,East,89,10.4,10.4,94,0.00,CLR,,0.00,0.0,WeatherDisplay:10.37,2013-05-01 06:38:00,
2013-05-01 02:43:00,60.2,58.5,30.14,ENE,76,6.0,6.0,94,0.00,CLR,,0.00,0.0,WeatherDisplay:10.37,2013-05-01 06:43:00,
2013-05-01 02:48:00,60.3,58.6,30.14,East,88,5.8,5.8,94,0.00,CLR,,0.00,0.0,WeatherDisplay:10.37,2013-05-01 06:48:00,
2013-05-01 02:53:00,60.3,58.3,30.14,East,86,6.9,6.9,93,0.00,CLR,,0.00,0.0,WeatherDisplay:10.37,2013-05-01 06:53:00,
2013-05-01 02:58:00,60.4,58.4,30.14,East,88,5.8,5.8,93,0.00,CLR,,0.00,0.0,WeatherDisplay:10.37,2013-05-01 06:58:00,
2013-05-01 03:03:00,60.4,58.4,30.14,East,101,7.0,7.0,93,0.00,CLR,,0.00,0.0,WeatherDisplay:10.37,2013-05-01 07:03:00,
2013-05-01 03:08:00,60.4,58.4,30.14,East,101,3.5,3.5,93,0.00,CLR,,0.00,0.0,WeatherDisplay:10.37,2013-05-01 07:08:00,
2013-05-01 03:13:00,60.3,58.3,30.13,East,90,9.0,9.0,93,0.00,CLR,,0.00,0.0,WeatherDisplay:10.37,2013-05-01 07:13:00,
2013-05-01 03:18:00,60.3,58.3,30.13,East,95,9.2,9.2,93,0.00,CLR,,0.00,0.0,WeatherDisplay:10.37,2013-05-01 07:18:00,
2013-05-01 03:23:00,60.3,58.3,30.13,ESE,106,10.4,10.4,93,0.00,CLR,,0.00,0.0,WeatherDisplay:10.37,2013-05-01 07:23:00,
2013-05-01 03:28:00,60.3,58.3,30.13,East,82,10.4,10.4,93,0.00,CLR,,0.00,0.0,WeatherDisplay:10.37,2013-05-01 07:28:00,
2013-05-01 03:33:00,60.3,58.3,30.13,ENE,77,0.0,0.0,93,0.00,CLR,,0.00,0.0,WeatherDisplay:10.37,2013-05-01 07:33:00,
2013-05-01 03:38:00,60.4,58.4,30.13,East,96,8.1,8.1,93,0.00,CLR,,0.00,0.0,WeatherDisplay:10.37,2013-05-01 07:38:00,
2013-05-01 03:43:00,60.3,58.3,30.13,ESE,108,1.2,1.2,93,0.00,CLR,,0.00,0.0,WeatherDisplay:10.37,2013-05-01 07:43:00,
2013-05-01 03:48:00,60.3,58.3,30.13,East,84,5.8,5.8,93,0.00,CLR,,0.00,0.0,WeatherDisplay:10.37,2013-05-01 07:48:00,
2013-05-01 03:53:00,60.3,58.3,30.13,East,86,6.9,6.9,93,0.00,CLR,,0.00,0.0,WeatherDisplay:10.37,2013-05-01 07:53:00,
2013-05-01 03:58:00,60.3,58.3,30.13,ESE,105,12.0,12.0,93,0.00,CLR,,0.00,0.0,WeatherDisplay:10.37,2013-05-01 07:58:00,
2013-05-01 04:00:00,59.7,54.9,30.21,East,86,9.0,16.0,84,0.00,OVC,,0.00,223.0,WeatherDisplay:10.37,2013-05-01 08:00:00,
2013-05-01 04:03:00,60.3,58.3,30.13,ESE,105,3.5,3.5,93,0.00,CLR,,0.00,0.0,WeatherDisplay:10.37,2013-05-01 08:03:00,
2013-05-01 04:08:00,60.3,58.3,30.13,East,84,8.1,8.1,93,0.00,CLR,,0.00,0.0,WeatherDisplay:10.37,2013-05-01 08:08:00,
2013-05-01 04:13:00,60.2,58.2,30.12,East,86,8.1,8.1,93,0.00,CLR,,0.00,0.0,WeatherDisplay:10.37,2013-05-01 08:13:00,
2013-05-01 04:18:00,60.0,58.0,30.12,East,92,11.5,11.5,93,0.00,CLR,,0.00,0.0,WeatherDisplay:10.37,2013-05-01 08:18:00,
2013-05-01 04:23:00,59.9,57.9,30.12,ENE,73,4.6,4.6,93,0.00,CLR,,0.00,0.0,WeatherDisplay:10.37,2013-05-01 08:23:00,
2013-05-01 04:28:00,59.8,57.8,30.13,ESE,113,9.0,9.0,93,0.00,CLR,,0.00,0.0,WeatherDisplay:10.37,2013-05-01 08:28:00,
2013-05-01 04:33:00,59.6,57.6,30.13,East,86,11.5,11.5,93,0.00,CLR,,0.00,0.0,WeatherDisplay:10.37,2013-05-01 08:33:00,
2013-05-01 04:38:00,59.6,57.6,30.13,ESE,105,9.0,9.0,93,0.00,CLR,,0.00,0.0,WeatherDisplay:10.37,2013-05-01 08:38:00,
2013-05-01 04:43:00,59.5,57.5,30.13,East,82,4.6,4.6,93,0.00,CLR,,0.00,0.0,WeatherDisplay:10.37,2013-05-01 08:43:00,
2013-05-01 04:48:00,59.4,57.4,30.13,East,90,6.9,6.9,93,0.00,CLR,,0.00,0.0,WeatherDisplay:10.37,2013-05-01 08:48:00,
2013-05-01 04:53:00,59.4,57.1,30.13,East,89,2.3,2.3,92,0.00,CLR,,0.00,0.0,WeatherDisplay:10.37,2013-05-01 08:53:00,
2013-05-01 04:58:00,59.4,57.4,30.13,ESE,112,0.0,0.0,93,0.00,CLR,,0.00,0.0,WeatherDisplay:10.37,2013-05-01 08:58:00,
2013-05-01 05:03:00,59.3,57.3,30.13,East,94,3.5,3.5,93,0.00,CLR,,0.00,0.0,WeatherDisplay:10.37,2013-05-01 09:03:00,
2013-05-01 05:08:00,59.3,57.3,30.13,NE,53,8.1,8.1,93,0.00,CLR,,0.00,0.0,WeatherDisplay:10.37,2013-05-01 09:08:00,
2013-05-01 05:13:00,59.2,57.2,30.13,East,96,5.8,5.8,93,0.00,CLR,,0.00,0.0,WeatherDisplay:10.37,2013-05-01 09:13:00,
2013-05-01 05:18:00,59.2,57.2,30.13,SE,129,3.5,3.5,93,0.00,CLR,,0.00,0.0,WeatherDisplay:10.37,2013-05-01 09:18:00,
2013-05-01 05:23:00,59.1,57.1,30.13,ESE,113,6.9,6.9,93,0.00,CLR,,0.00,0.0,WeatherDisplay:10.37,2013-05-01 09:23:00,
2013-05-01 05:28:00,59.1,57.1,30.13,East,101,9.2,9.2,93,0.00,CLR,,0.00,0.0,WeatherDisplay:10.37,2013-05-01 09:28:00,
2013-05-01 05:33:00,59.1,57.1,30.13,East,82,9.2,9.2,93,0.00,CLR,,0.00,0.0,WeatherDisplay:10.37,2013-05-01 09:33:00,
2013-05-01 05:38:00,59.0,57.0,30.13,ESE,110,5.8,5.8,93,0.00,CLR,,0.00,0.0,WeatherDisplay:10.37,2013-05-01 09:38:00,
2013-05-01 05:43:00,59.0,56.7,30.13,SSE,151,10.0,10.0,92,0.00,CLR,,0.00,0.0,WeatherDisplay:10.37,2013-05-01 09:43:00,
2013-05-01 05:48:00,58.9,56.6,30.13,ESE,115,7.0,7.0,92,0.00,CLR,,0.00,0.0,WeatherDisplay:10.37,2013-05-01 09:48:00,
2013-05-01 05:53:00,58.9,56.6,30.13,ESE,119,14.0,14.0,92,0.00,CLR,,0.00,0.0,WeatherDisplay:10.37,2013-05-01 09:53:00,
2013-05-01 05:58:00,58.8,56.5,30.13,East,82,11.5,11.5,92,0.00,CLR,,0.00,0.0,WeatherDisplay:10.37,2013-05-01 09:58:00,
2013-05-01 06:03:00,58.8,56.2,30.13,East,88,10.4,10.4,91,0.00,CLR,,0.00,0.0,WeatherDisplay:10.37,2013-05-01 10:03:00,
2013-05-01 06:08:00,58.7,56.1,30.13,East,82,13.8,13.8,91,0.00,CLR,,0.00,0.0,WeatherDisplay:10.37,2013-05-01 10:08:00,
2013-05-01 06:13:00,58.6,56.0,30.13,SE,126,10.4,10.4,91,0.00,CLR,,0.00,0.0,WeatherDisplay:10.37,2013-05-01 10:13:00,
2013-05-01 06:18:00,58.5,55.6,30.13,East,89,9.2,9.2,90,0.00,CLR,,0.00,0.0,WeatherDisplay:10.37,2013-05-01 10:18:00,
2013-05-01 06:23:00,58.4,55.5,30.13,ESE,102,9.2,9.2,90,0.00,CLR,,0.00,0.0,WeatherDisplay:10.37,2013-05-01 10:23:00,
2013-05-01 06:28:00,58.3,56.0,30.13,East,88,11.5,11.5,92,0.00,CLR,,0.00,0.0,WeatherDisplay:10.37,2013-05-01 10:28:00,
2013-05-01 06:33:00,58.2,55.3,30.13,East,90,9.2,9.2,90,0.00,CLR,,0.00,0.0,WeatherDisplay:10.37,2013-05-01 10:33:00,
2013-05-01 06:38:00,58.1,55.2,30.13,ESE,103,1.0,0.0,90,0.00,CLR,,0.00,0.0,WeatherDisplay:10.37,2013-05-01 10:38:00,
2013-05-01 06:43:00,58.0,54.8,30.14,NNE,26,10.4,10.4,89,0.00,CLR,,0.00,0.0,WeatherDisplay:10.37,2013-05-01 10:43:00,
2013-05-01 06:48:00,57.8,54.6,30.14,East,84,3.5,3.5,89,0.00,CLR,,0.00,0.0,WeatherDisplay:10.37,2013-05-01 10:48:00,
2013-05-01 06:53:00,57.7,54.8,30.14,ESE,110,6.9,6.9,90,0.00,CLR,,0.00,5.0,WeatherDisplay:10.37,2013-05-01 10:53:00,
2013-05-01 06:58:00,57.6,54.7,30.14,SE,140,10.4,10.4,90,0.00,CLR,,0.00,9.0,WeatherDisplay:10.37,2013-05-01 10:58:00,
2013-05-01 07:03:00,57.5,54.3,30.14,East,80,12.7,12.7,89,0.00,CLR,,0.00,14.0,WeatherDisplay:10.37,2013-05-01 11:03:00,
2013-05-01 07:08:00,57.5,54.3,30.15,East,92,7.0,7.0,89,0.00,CLR,,0.00,19.0,WeatherDisplay:10.37,2013-05-01 11:08:00,
2013-05-01 07:13:00,57.4,54.2,30.15,ESE,115,16.1,16.1,89,0.00,CLR,,0.00,28.0,WeatherDisplay:10.37,2013-05-01 11:13:00,
2013-05-01 07:18:00,57.4,54.2,30.15,East,92,5.8,5.8,89,0.00,CLR,,0.00,39.0,WeatherDisplay:10.37,2013-05-01 11:18:00,
2013-05-01 07:23:00,57.4,54.2,30.15,East,96,11.5,11.5,89,0.00,CLR,,0.00,47.0,WeatherDisplay:10.37,2013-05-01 11:23:00,
2013-05-01 07:28:00,57.5,54.3,30.15,East,92,6.0,6.0,89,0.00,CLR,,0.00,58.0,WeatherDisplay:10.37,2013-05-01 11:28:00,
2013-05-01 07:33:00,57.5,54.3,30.15,East,82,9.2,9.2,89,0.00,CLR,,0.00,70.0,WeatherDisplay:10.37,2013-05-01 11:33:00,
2013-05-01 07:38:00,57.6,54.4,30.16,ESE,111,18.0,18.0,89,0.00,CLR,,0.00,69.0,WeatherDisplay:10.37,2013-05-01 11:38:00,
2013-05-01 07:43:00,57.7,54.2,30.16,East,83,6.9,6.9,88,0.00,CLR,,0.00,91.0,WeatherDisplay:10.37,2013-05-01 11:43:00,
2013-05-01 07:48:00,57.8,54.3,30.16,East,81,11.5,11.5,88,0.00,CLR,,0.00,63.0,WeatherDisplay:10.37,2013-05-01 11:48:00,
2013-05-01 07:53:00,57.8,54.3,30.17,East,98,11.5,11.5,88,0.00,CLR,,0.00,77.0,WeatherDisplay:10.37,2013-05-01 11:53:00,
2013-05-01 07:58:00,57.8,54.3,30.17,East,91,10.4,10.4,88,0.00,CLR,,0.00,90.0,WeatherDisplay:10.37,2013-05-01 11:58:00,
2013-05-01 08:03:00,57.9,54.4,30.17,East,94,10.4,10.4,88,0.00,OVC,,0.00,97.0,WeatherDisplay:10.37,2013-05-01 12:03:00,
2013-05-01 08:08:00,58.0,54.2,30.17,East,96,18.4,18.4,87,0.00,OVC,,0.00,98.0,WeatherDisplay:10.37,2013-05-01 12:08:00,
2013-05-01 08:13:00,58.1,54.2,30.17,East,88,17.3,17.3,87,0.00,OVC,,0.00,102.0,WeatherDisplay:10.37,2013-05-01 12:13:00,
2013-05-01 08:18:00,58.2,54.3,30.17,East,79,9.0,9.0,87,0.00,OVC,,0.00,104.0,WeatherDisplay:10.37,2013-05-01 12:18:00,
2013-05-01 08:23:00,58.4,54.2,30.17,ESE,113,19.6,19.6,86,0.00,OVC,,0.00,271.0,WeatherDisplay:10.37,2013-05-01 12:23:00,
2013-05-01 08:28:00,58.5,54.3,30.18,ESE,109,11.5,11.5,86,0.00,OVC,,0.00,308.0,WeatherDisplay:10.37,2013-05-01 12:28:00,
2013-05-01 08:33:00,58.8,54.6,30.19,NE,50,11.5,11.5,86,0.00,OVC,,0.00,123.0,WeatherDisplay:10.37,2013-05-01 12:33:00,
2013-05-01 08:38:00,59.0,54.5,30.19,ENE,71,11.5,11.5,85,0.00,OVC,,0.00,230.0,WeatherDisplay:10.37,2013-05-01 12:38:00,
2013-05-01 08:43:00,59.2,54.7,30.19,East,96,13.8,13.8,85,0.00,OVC,,0.00,188.0,WeatherDisplay:10.37,2013-05-01 12:43:00,
2013-05-01 08:48:00,59.3,54.8,30.20,NE,53,9.2,9.2,85,0.00,OVC,,0.00,353.0,WeatherDisplay:10.37,2013-05-01 12:48:00,
2013-05-01 08:54:00,59.4,54.6,30.20,East,84,15.0,15.0,84,0.00,OVC,,0.00,206.0,WeatherDisplay:10.37,2013-05-01 12:54:00,
2013-05-01 09:02:00,59.8,55.0,30.21,ENE,65,12.7,13.0,84,0.00,OVC,,0.00,223.0,WeatherDisplay:10.37,2013-05-01 13:02:00,
2013-05-01 09:07:00,59.9,54.7,30.21,ESE,120,16.1,16.1,83,0.00,OVC,,0.00,452.0,WeatherDisplay:10.37,2013-05-01 13:07:00,
2013-05-01 09:13:00,59.8,54.6,30.21,ESE,111,15.0,15.0,83,0.00,OVC,,0.00,223.0,WeatherDisplay:10.37,2013-05-01 13:13:00,
2013-05-01 09:18:00,59.7,54.5,30.21,ENE,70,15.0,15.0,83,0.00,OVC,,0.00,227.0,WeatherDisplay:10.37,2013-05-01 13:18:00,
2013-05-01 09:23:00,59.6,54.4,30.20,ESE,115,17.3,17.3,83,0.00,OVC,,0.00,260.0,WeatherDisplay:10.37,2013-05-01 13:23:00,
2013-05-01 09:28:00,59.5,54.3,30.20,East,81,20.7,20.7,83,0.00,OVC,,0.00,218.0,WeatherDisplay:10.37,2013-05-01 13:28:00,
2013-05-01 09:33:00,59.6,54.4,30.19,ESE,113,14.0,14.0,83,0.00,OVC,,0.00,258.0,WeatherDisplay:10.37,2013-05-01 13:33:00,
2013-05-01 09:38:00,59.8,54.6,30.19,ESE,109,19.6,19.6,83,0.00,OVC,,0.00,629.0,WeatherDisplay:10.37,2013-05-01 13:38:00,
2013-05-01 09:43:00,60.1,54.6,30.19,East,93,16.1,16.1,82,0.00,OVC,,0.00,357.0,WeatherDisplay:10.37,2013-05-01 13:43:00,
2013-05-01 09:48:00,60.1,54.6,30.19,ENE,72,18.0,18.0,82,0.00,OVC,,0.00,325.0,WeatherDisplay:10.37,2013-05-01 13:48:00,
2013-05-01 09:53:00,60.3,55.1,30.18,ENE,69,18.4,18.4,83,0.00,OVC,,0.00,255.0,WeatherDisplay:10.37,2013-05-01 13:53:00,
2013-05-01 09:58:00,60.4,54.9,30.19,ESE,117,16.1,16.1,82,0.00,OVC,,0.00,316.0,WeatherDisplay:10.37,2013-05-01 13:58:00,
2013-05-01 10:03:00,60.5,55.0,30.19,SSE,151,19.6,19.6,82,0.00,OVC,,0.00,348.0,WeatherDisplay:10.37,2013-05-01 14:03:00,
2013-05-01 10:08:00,60.6,54.7,30.19,East,93,15.0,15.0,81,0.00,OVC,,0.00,346.0,WeatherDisplay:10.37,2013-05-01 14:08:00,
2013-05-01 10:13:00,60.8,55.6,30.20,East,97,6.0,6.0,83,0.00,OVC,,0.00,348.0,WeatherDisplay:10.37,2013-05-01 14:13:00,
2013-05-01 10:18:00,61.3,55.4,30.20,ESE,105,17.0,17.0,81,0.00,OVC,,0.00,341.0,WeatherDisplay:10.37,2013-05-01 14:18:00,
2013-05-01 10:23:00,61.7,55.5,30.20,SE,138,13.8,13.8,80,0.00,OVC,,0.00,357.0,WeatherDisplay:10.37,2013-05-01 14:23:00,
2013-05-01 10:28:00,62.0,55.8,30.20,ESE,107,8.0,8.0,80,0.00,OVC,,0.00,404.0,WeatherDisplay:10.37,2013-05-01 14:28:00,
2013-05-01 10:33:00,62.4,56.1,30.20,ESE,114,13.8,13.8,80,0.00,OVC,,0.00,371.0,WeatherDisplay:10.37,2013-05-01 14:33:00,
2013-05-01 10:38:00,62.8,56.5,30.21,East,91,1.2,1.2,80,0.00,OVC,,0.00,348.0,WeatherDisplay:10.37,2013-05-01 14:38:00,
2013-05-01 10:43:00,63.3,56.0,30.21,ESE,117,15.0,15.0,77,0.00,OVC,,0.00,387.0,WeatherDisplay:10.37,2013-05-01 14:43:00,
2013-05-01 10:48:00,63.4,56.4,30.21,ENE,65,4.6,4.6,78,0.00,OVC,,0.00,343.0,WeatherDisplay:10.37,2013-05-01 14:48:00,
2013-05-01 10:53:00,63.6,55.5,30.21,East,94,5.8,5.8,75,0.00,OVC,,0.00,545.0,WeatherDisplay:10.37,2013-05-01 14:53:00,
2013-05-01 10:58:00,64.1,56.7,30.20,ESE,107,9.2,9.2,77,0.00,OVC,,0.00,798.0,WeatherDisplay:10.37,2013-05-01 14:58:00,
2013-05-01 11:03:00,64.4,56.3,30.20,East,84,16.1,16.1,75,0.00,OVC,,0.00,443.0,WeatherDisplay:10.37,2013-05-01 15:03:00,
2013-05-01 11:08:00,64.5,56.0,30.20,ESE,109,16.1,16.1,74,0.00,OVC,,0.00,626.0,WeatherDisplay:10.37,2013-05-01 15:08:00,
2013-05-01 11:13:00,64.3,55.8,30.20,ESE,118,9.2,9.2,74,0.00,OVC,,0.00,388.0,WeatherDisplay:10.37,2013-05-01 15:13:00,
2013-05-01 11:18:00,64.1,55.6,30.20,East,85,15.0,15.0,74,0.00,OVC,,0.00,417.0,WeatherDisplay:10.37,2013-05-01 15:18:00,
2013-05-01 11:23:00,64.1,55.6,30.20,ESE,105,12.7,12.7,74,0.00,OVC,,0.00,700.0,WeatherDisplay:10.37,2013-05-01 15:23:00,
2013-05-01 11:28:00,64.4,56.3,30.19,ENE,71,14.0,14.0,75,0.00,OVC,,0.00,545.0,WeatherDisplay:10.37,2013-05-01 15:28:00,
2013-05-01 11:33:00,64.5,55.7,30.19,East,82,15.0,15.0,73,0.00,OVC,,0.00,476.0,WeatherDisplay:10.37,2013-05-01 15:33:00,
2013-05-01 11:38:00,64.7,57.0,30.19,East,84,9.2,9.2,76,0.00,OVC,,0.00,830.0,WeatherDisplay:10.37,2013-05-01 15:38:00,
2013-05-01 11:43:00,65.1,56.6,30.19,East,92,3.5,3.5,74,0.00,OVC,,0.00,496.0,WeatherDisplay:10.37,2013-05-01 15:43:00,
2013-05-01 11:48:00,65.4,56.1,30.19,ESE,109,12.7,12.7,72,0.00,CLR,,0.00,552.0,WeatherDisplay:10.37,2013-05-01 15:48:00,
2013-05-01 11:53:00,65.3,56.0,30.19,ENE,62,12.7,12.7,72,0.00,CLR,,0.00,499.0,WeatherDisplay:10.37,2013-05-01 15:53:00,
2013-05-01 11:58:00,65.5,56.6,30.19,NE,52,9.2,9.2,73,0.00,CLR,,0.00,647.0,WeatherDisplay:10.37,2013-05-01 15:58:00,
2013-05-01 12:03:00,65.8,56.1,30.19,East,96,11.5,11.5,71,0.00,CLR,,0.00,459.0,WeatherDisplay:10.37,2013-05-01 16:03:00,
2013-05-01 12:08:00,66.0,57.1,30.18,ENE,67,11.5,11.5,73,0.00,CLR,,0.00,468.0,WeatherDisplay:10.37,2013-05-01 16:08:00,
2013-05-01 12:13:00,65.9,56.6,30.18,SSE,156,12.0,12.0,72,0.00,CLR,,0.00,796.0,WeatherDisplay:10.37,2013-05-01 16:13:00,
2013-05-01 12:18:00,66.1,56.0,30.18,East,82,13.8,13.8,70,0.00,CLR,,0.00,677.0,WeatherDisplay:10.37,2013-05-01 16:18:00,
2013-05-01 12:23:00,66.2,56.1,30.19,East,92,13.8,13.8,70,0.00,CLR,,0.00,698.0,WeatherDisplay:10.37,2013-05-01 16:23:00,
2013-05-01 12:28:00,66.3,56.2,30.19,SE,128,11.5,11.5,70,0.00,CLR,,0.00,731.0,WeatherDisplay:10.37,2013-05-01 16:28:00,
2013-05-01 12:33:00,66.6,57.3,30.19,ENE,61,11.5,11.5,72,0.00,CLR,,0.00,742.0,WeatherDisplay:10.37,2013-05-01 16:33:00,
2013-05-01 12:38:00,67.0,56.5,30.19,ESE,105,9.2,9.2,69,0.00,CLR,,0.00,527.0,WeatherDisplay:10.37,2013-05-01 16:38:00,
2013-05-01 12:43:00,66.9,55.6,30.20,ENE,67,9.2,9.2,67,0.00,CLR,,0.00,411.0,WeatherDisplay:10.37,2013-05-01 16:43:00,
2013-05-01 12:48:00,66.6,56.9,30.19,ENE,75,11.5,11.5,71,0.00,CLR,,0.00,380.0,WeatherDisplay:10.37,2013-05-01 16:48:00,
2013-05-01 12:53:00,66.4,55.9,30.19,East,101,11.5,11.5,69,0.00,CLR,,0.00,520.0,WeatherDisplay:10.37,2013-05-01 16:53:00,
2013-05-01 12:58:00,66.5,56.0,30.19,SE,140,9.2,9.2,69,0.00,CLR,,0.00,420.0,WeatherDisplay:10.37,2013-05-01 16:58:00,
2013-05-01 13:03:00,66.6,56.5,30.19,NE,44,5.8,5.8,70,0.00,CLR,,0.00,494.0,WeatherDisplay:10.37,2013-05-01 17:03:00,
2013-05-01 13:08:00,66.7,57.0,30.19,ENE,65,11.0,11.0,71,0.00,CLR,,0.00,457.0,WeatherDisplay:10.37,2013-05-01 17:08:00,
2013-05-01 13:13:00,66.7,56.2,30.19,ENE,72,3.5,3.5,69,0.00,CLR,,0.00,517.0,WeatherDisplay:10.37,2013-05-01 17:13:00,
2013-05-01 13:18:00,67.0,57.3,30.19,ESE,113,11.5,11.5,71,0.00,CLR,,0.00,751.0,WeatherDisplay:10.37,2013-05-01 17:18:00,
2013-05-01 13:23:00,67.1,57.0,30.19,East,101,8.1,8.1,70,0.00,CLR,,0.00,526.0,WeatherDisplay:10.37,2013-05-01 17:23:00,
2013-05-01 13:28:00,67.3,56.8,30.19,East,92,10.4,10.4,69,0.00,CLR,,0.00,833.0,WeatherDisplay:10.37,2013-05-01 17:28:00,
2013-05-01 13:33:00,67.5,56.6,30.19,East,86,9.2,9.2,68,0.00,CLR,,0.00,492.0,WeatherDisplay:10.37,2013-05-01 17:33:00,
2013-05-01 13:38:00,67.5,56.6,30.19,ESE,104,11.5,11.5,68,0.00,CLR,,0.00,457.0,WeatherDisplay:10.37,2013-05-01 17:38:00,
2013-05-01 13:43:00,67.3,58.0,30.19,SSE,155,5.8,5.8,72,0.00,CLR,,0.00,777.0,WeatherDisplay:10.37,2013-05-01 17:43:00,
2013-05-01 13:48:00,67.5,56.2,30.19,East,84,12.7,12.7,67,0.00,CLR,,0.00,548.0,WeatherDisplay:10.37,2013-05-01 17:48:00,
2013-05-01 13:53:00,67.6,57.1,30.19,SE,135,7.0,7.0,69,0.00,CLR,,0.00,721.0,WeatherDisplay:10.37,2013-05-01 17:53:00,
2013-05-01 13:58:00,67.8,56.4,30.19,ESE,113,12.7,12.7,67,0.00,CLR,,0.00,728.0,WeatherDisplay:10.37,2013-05-01 17:58:00,
2013-05-01 14:03:00,68.0,57.4,30.19,East,87,11.5,11.5,69,0.00,CLR,,0.00,592.0,WeatherDisplay:10.37,2013-05-01 18:03:00,
2013-05-01 14:08:00,68.3,56.9,30.19,ESE,113,6.9,6.9,67,0.00,CLR,,0.00,626.0,WeatherDisplay:10.37,2013-05-01 18:08:00,
2013-05-01 14:13:00,68.1,57.1,30.19,ESE,108,9.2,9.2,68,0.00,CLR,,0.00,492.0,WeatherDisplay:10.37,2013-05-01 18:13:00,
2013-05-01 14:18:00,67.8,56.9,30.19,ENE,74,10.4,10.4,68,0.00,CLR,,0.00,475.0,WeatherDisplay:10.37,2013-05-01 18:18:00,
2013-05-01 14:23:00,67.7,56.8,30.19,ENE,69,4.6,4.6,68,0.00,CLR,,0.00,487.0,WeatherDisplay:10.37,2013-05-01 18:23:00,
2013-05-01 14:28:00,67.5,56.6,30.19,East,80,11.5,11.5,68,0.00,CLR,,0.00,455.0,WeatherDisplay:10.37,2013-05-01 18:28:00,
2013-05-01 14:33:00,67.5,57.4,30.19,East,90,5.8,5.8,70,0.00,CLR,,0.00,457.0,WeatherDisplay:10.37,2013-05-01 18:33:00,
2013-05-01 14:38:00,67.8,57.7,30.19,East,98,10.4,10.4,70,0.00,FEW,,0.00,445.0,WeatherDisplay:10.37,2013-05-01 18:38:00,
2013-05-01 14:43:00,67.8,56.9,30.19,ESE,117,6.0,6.0,68,0.00,FEW,,0.00,538.0,WeatherDisplay:10.37,2013-05-01 18:43:00,
2013-05-01 14:48:00,67.8,56.4,30.19,ENE,61,6.9,6.9,67,0.00,CLR,,0.00,564.0,WeatherDisplay:10.37,2013-05-01 18:48:00,
2013-05-01 14:53:00,67.9,56.9,30.19,ENE,67,5.8,5.8,68,0.00,CLR,,0.00,582.0,WeatherDisplay:10.37,2013-05-01 18:53:00,
2013-05-01 14:58:00,67.9,56.9,30.19,ENE,69,12.7,12.7,68,0.00,CLR,,0.00,555.0,WeatherDisplay:10.37,2013-05-01 18:58:00,
2013-05-01 15:03:00,68.0,57.4,30.19,East,99,9.2,9.2,69,0.00,CLR,,0.00,570.0,WeatherDisplay:10.37,2013-05-01 19:03:00,
2013-05-01 15:08:00,68.0,57.0,30.19,East,87,4.6,4.6,68,0.00,FEW,,0.00,494.0,WeatherDisplay:10.37,2013-05-01 19:08:00,
2013-05-01 15:13:00,68.2,57.6,30.18,ESE,109,6.0,6.0,69,0.00,CLR,,0.00,758.0,WeatherDisplay:10.37,2013-05-01 19:13:00,
2013-05-01 15:18:00,68.5,57.9,30.18,ESE,102,2.3,2.3,69,0.00,CLR,,0.00,668.0,WeatherDisplay:10.37,2013-05-01 19:18:00,
2013-05-01 15:23:00,68.8,57.4,30.18,ESE,111,11.5,11.5,67,0.00,CLR,,0.00,650.0,WeatherDisplay:10.37,2013-05-01 19:23:00,
2013-05-01 15:28:00,68.7,56.9,30.17,East,82,10.4,10.4,66,0.00,SCT,,0.00,582.0,WeatherDisplay:10.37,2013-05-01 19:28:00,
2013-05-01 15:33:00,68.6,58.4,30.17,SE,127,12.7,12.7,70,0.00,SCT,,0.00,540.0,WeatherDisplay:10.37,2013-05-01 19:33:00,
2013-05-01 15:38:00,68.3,56.9,30.17,ESE,122,13.0,13.0,67,0.00,SCT,,0.00,554.0,WeatherDisplay:10.37,2013-05-01 19:38:00,
2013-05-01 15:43:00,68.3,57.3,30.17,East,88,5.8,5.8,68,0.00,SCT,,0.00,563.0,WeatherDisplay:10.37,2013-05-01 19:43:00,
2013-05-01 15:48:00,68.4,57.0,30.17,East,90,4.6,4.6,67,0.00,SCT,,0.00,554.0,WeatherDisplay:10.37,2013-05-01 19:48:00,
2013-05-01 15:53:00,68.6,57.2,30.17,East,101,5.0,5.0,67,0.00,SCT,,0.00,527.0,WeatherDisplay:10.37,2013-05-01 19:53:00,
2013-05-01 15:58:00,68.6,57.2,30.17,ESE,114,11.5,11.5,67,0.00,SCT,,0.00,492.0,WeatherDisplay:10.37,2013-05-01 19:58:00,
2013-05-01 16:03:00,68.2,56.4,30.17,ENE,78,17.3,17.3,66,0.00,SCT,,0.00,455.0,WeatherDisplay:10.37,2013-05-01 20:03:00,
2013-05-01 16:08:00,68.0,56.6,30.17,East,80,10.4,10.4,67,0.00,BKN,,0.00,425.0,WeatherDisplay:10.37,2013-05-01 20:08:00,
2013-05-01 16:13:00,67.8,57.3,30.16,ESE,120,13.8,13.8,69,0.00,BKN,,0.00,403.0,WeatherDisplay:10.37,2013-05-01 20:13:00,
2013-05-01 16:18:00,67.6,56.7,30.16,ENE,61,11.5,11.5,68,0.00,BKN,,0.00,394.0,WeatherDisplay:10.37,2013-05-01 20:18:00,
2013-05-01 16:24:00,67.4,56.9,30.16,ESE,110,9.2,9.2,69,0.00,BKN,,0.00,381.0,WeatherDisplay:10.37,2013-05-01 20:24:00,
2013-05-01 16:29:00,67.4,56.9,30.16,ENE,71,11.5,11.5,69,0.00,BKN,,0.00,371.0,WeatherDisplay:10.37,2013-05-01 20:29:00,
2013-05-01 16:34:00,67.3,56.8,30.16,ESE,103,12.0,12.0,69,0.00,BKN,,0.00,380.0,WeatherDisplay:10.37,2013-05-01 20:34:00,
2013-05-01 16:39:00,67.3,56.4,30.16,ENE,78,11.5,11.5,68,0.00,BKN,,0.00,366.0,WeatherDisplay:10.37,2013-05-01 20:39:00,
2013-05-01 16:44:00,67.2,56.7,30.16,East,94,7.0,7.0,69,0.00,BKN,,0.00,346.0,WeatherDisplay:10.37,2013-05-01 20:44:00,
2013-05-01 16:49:00,67.1,56.6,30.16,East,80,4.6,4.6,69,0.00,BKN,,0.00,330.0,WeatherDisplay:10.37,2013-05-01 20:49:00,
2013-05-01 16:54:00,66.8,56.3,30.16,ESE,109,12.7,12.7,69,0.00,BKN,,0.00,325.0,WeatherDisplay:10.37,2013-05-01 20:54:00,
2013-05-01 16:59:00,66.6,56.1,30.16,East,95,11.5,11.5,69,0.00,BKN,,0.00,308.0,WeatherDisplay:10.37,2013-05-01 20:59:00,
2013-05-01 17:04:00,66.5,56.4,30.15,East,87,11.5,11.5,70,0.00,BKN,,0.00,294.0,WeatherDisplay:10.37,2013-05-01 21:04:00,
2013-05-01 17:09:00,66.3,56.2,30.15,East,86,3.5,3.5,70,0.00,BKN,,0.00,279.0,WeatherDisplay:10.37,2013-05-01 21:09:00,
2013-05-01 17:14:00,66.2,56.1,30.16,ENE,57,11.5,11.5,70,0.00,BKN,,0.00,264.0,WeatherDisplay:10.37,2013-05-01 21:14:00,
2013-05-01 17:19:00,66.1,55.6,30.16,ESE,123,11.5,11.5,69,0.00,BKN,,0.00,253.0,WeatherDisplay:10.37,2013-05-01 21:19:00,
2013-05-01 17:24:00,65.9,55.0,30.16,East,92,8.1,8.1,68,0.00,BKN,,0.00,243.0,WeatherDisplay:10.37,2013-05-01 21:24:00,
2013-05-01 17:29:00,65.8,54.9,30.16,ESE,107,12.0,12.0,68,0.00,BKN,,0.00,234.0,WeatherDisplay:10.37,2013-05-01 21:29:00,
2013-05-01 17:34:00,65.6,55.9,30.16,ESE,123,9.2,9.2,71,0.00,BKN,,0.00,221.0,WeatherDisplay:10.37,2013-05-01 21:34:00,
2013-05-01 17:39:00,65.5,55.5,30.16,ESE,109,10.4,10.4,70,0.00,BKN,,0.00,211.0,WeatherDisplay:10.37,2013-05-01 21:39:00,
2013-05-01 17:44:00,65.3,55.3,30.16,SE,132,10.4,10.4,70,0.00,BKN,,0.00,200.0,WeatherDisplay:10.37,2013-05-01 21:44:00,
2013-05-01 17:49:00,65.1,55.8,30.16,ESE,119,11.5,11.5,72,0.00,BKN,,0.00,188.0,WeatherDisplay:10.37,2013-05-01 21:49:00,
2013-05-01 17:54:00,65.0,55.0,30.16,ESE,104,10.4,10.4,70,0.00,BKN,,0.00,176.0,WeatherDisplay:10.37,2013-05-01 21:54:00,
2013-05-01 17:59:00,64.8,54.8,30.15,ESE,107,5.8,5.8,70,0.00,BKN,,0.00,167.0,WeatherDisplay:10.37,2013-05-01 21:59:00,
2013-05-01 18:04:00,64.7,55.5,30.16,ESE,107,4.6,4.6,72,0.00,BKN,,0.00,158.0,WeatherDisplay:10.37,2013-05-01 22:04:00,
2013-05-01 18:09:00,64.6,55.7,30.15,ESE,115,0.0,0.0,73,0.00,BKN,,0.00,155.0,WeatherDisplay:10.37,2013-05-01 22:09:00,
2013-05-01 18:14:00,64.6,55.4,30.15,ESE,111,3.5,3.5,72,0.00,BKN,,0.00,149.0,WeatherDisplay:10.37,2013-05-01 22:14:00,
2013-05-01 18:19:00,64.5,56.0,30.15,East,99,5.8,5.8,74,0.00,BKN,,0.00,144.0,WeatherDisplay:10.37,2013-05-01 22:19:00,
2013-05-01 18:24:00,64.4,55.6,30.15,ESE,103,9.2,9.2,73,0.00,BKN,,0.00,137.0,WeatherDisplay:10.37,2013-05-01 22:24:00,
2013-05-01 18:29:00,64.3,55.8,30.15,ESE,110,4.6,4.6,74,0.00,BKN,,0.00,132.0,WeatherDisplay:10.37,2013-05-01 22:29:00,
2013-05-01 18:34:00,64.2,55.7,30.15,ENE,75,10.4,10.4,74,0.00,BKN,,0.00,123.0,WeatherDisplay:10.37,2013-05-01 22:34:00,
2013-05-01 18:39:00,64.1,55.6,30.16,NE,46,6.9,6.9,74,0.00,BKN,,0.00,114.0,WeatherDisplay:10.37,2013-05-01 22:39:00,
2013-05-01 18:44:00,63.9,55.1,30.16,ESE,116,5.8,5.8,73,0.00,BKN,,0.00,109.0,WeatherDisplay:10.37,2013-05-01 22:44:00,
2013-05-01 18:49:00,63.8,55.7,30.16,SE,125,6.9,6.9,75,0.00,BKN,,0.00,105.0,WeatherDisplay:10.37,2013-05-01 22:49:00,
2013-05-01 18:54:00,63.7,55.3,30.16,ESE,106,15.0,15.0,74,0.00,BKN,,0.00,97.0,WeatherDisplay:10.37,2013-05-01 22:54:00,
2013-05-01 18:59:00,63.6,55.2,30.16,East,90,5.8,5.8,74,0.00,BKN,,0.00,88.0,WeatherDisplay:10.37,2013-05-01 22:59:00,
2013-05-01 19:04:00,63.5,55.4,30.16,ESE,115,8.1,8.1,75,0.00,BKN,,0.00,79.0,WeatherDisplay:10.37,2013-05-01 23:04:00,
2013-05-01 19:09:00,63.3,55.2,30.16,ESE,103,12.7,12.7,75,0.00,BKN,,0.00,72.0,WeatherDisplay:10.37,2013-05-01 23:09:00,
2013-05-01 19:14:00,63.1,55.4,30.16,ESE,107,10.4,10.4,76,0.00,BKN,,0.00,67.0,WeatherDisplay:10.37,2013-05-01 23:14:00,
2013-05-01 19:19:00,63.0,55.3,30.16,ESE,120,11.5,11.5,76,0.00,BKN,,0.00,62.0,WeatherDisplay:10.37,2013-05-01 23:19:00,
2013-05-01 19:24:00,62.8,55.1,30.16,East,88,12.0,12.0,76,0.00,CLR,,0.00,58.0,WeatherDisplay:10.37,2013-05-01 23:24:00,
2013-05-01 19:29:00,62.7,55.4,30.16,East,84,3.5,3.5,77,0.00,CLR,,0.00,54.0,WeatherDisplay:10.37,2013-05-01 23:29:00,
2013-05-01 19:34:00,62.6,55.3,30.16,East,89,3.5,3.5,77,0.00,CLR,,0.00,47.0,WeatherDisplay:10.37,2013-05-01 23:34:00,
2013-05-01 19:39:00,62.4,55.1,30.16,ENE,67,3.5,3.5,77,0.00,CLR,,0.00,40.0,WeatherDisplay:10.37,2013-05-01 23:39:00,
2013-05-01 19:44:00,62.2,55.3,30.16,East,87,4.6,4.6,78,0.00,CLR,,0.00,33.0,WeatherDisplay:10.37,2013-05-01 23:44:00,
2013-05-01 19:49:00,62.1,55.2,30.16,ESE,111,4.6,4.6,78,0.00,CLR,,0.00,28.0,WeatherDisplay:10.37,2013-05-01 23:49:00,
2013-05-01 19:54:00,61.9,55.3,30.16,East,88,5.8,5.8,79,0.00,CLR,,0.00,21.0,WeatherDisplay:10.37,2013-05-01 23:54:00,
2013-05-01 19:59:00,61.7,55.1,30.16,East,81,11.5,11.5,79,0.00,CLR,,0.00,16.0,WeatherDisplay:10.37,2013-05-01 23:59:00,
2013-05-01 20:04:00,61.5,55.3,30.16,East,79,5.8,5.8,80,0.00,CLR,,0.00,11.0,WeatherDisplay:10.37,2013-05-02 00:04:00,
2013-05-01 20:09:00,61.4,55.2,30.16,ENE,73,6.9,6.9,80,0.00,CLR,,0.00,7.0,WeatherDisplay:10.37,2013-05-02 00:09:00,
2013-05-01 20:14:00,61.2,55.3,30.17,ESE,113,6.0,6.0,81,0.00,CLR,,0.00,0.0,WeatherDisplay:10.37,2013-05-02 00:14:00,
2013-05-01 20:19:00,61.0,55.1,30.17,ESE,107,5.8,5.8,81,0.00,CLR,,0.00,0.0,WeatherDisplay:10.37,2013-05-02 00:19:00,
2013-05-01 20:24:00,60.8,55.3,30.17,East,93,6.9,6.9,82,0.00,CLR,,0.00,0.0,WeatherDisplay:10.37,2013-05-02 00:24:00,
2013-05-01 20:29:00,60.7,55.2,30.17,East,100,5.8,5.8,82,0.00,CLR,,0.00,0.0,WeatherDisplay:10.37,2013-05-02 00:29:00,
2013-05-01 20:34:00,60.6,55.1,30.18,East,83,3.5,3.5,82,0.00,CLR,,0.00,0.0,WeatherDisplay:10.37,2013-05-02 00:34:00,
2013-05-01 20:39:00,60.5,55.3,30.17,ESE,119,4.6,4.6,83,0.00,CLR,,0.00,0.0,WeatherDisplay:10.37,2013-05-02 00:39:00,
2013-05-01 20:44:00,60.3,55.1,30.18,ESE,103,5.8,5.8,83,0.00,CLR,,0.00,0.0,WeatherDisplay:10.37,2013-05-02 00:44:00,
2013-05-01 20:49:00,60.2,55.0,30.18,ESE,109,5.8,5.8,83,0.00,CLR,,0.00,0.0,WeatherDisplay:10.37,2013-05-02 00:49:00,
2013-05-01 20:54:00,60.1,54.9,30.18,SE,127,9.2,9.2,83,0.00,CLR,,0.00,0.0,WeatherDisplay:10.37,2013-05-02 00:54:00,
2013-05-01 20:59:00,60.0,54.5,30.18,East,95,6.9,6.9,82,0.00,CLR,,0.00,0.0,WeatherDisplay:10.37,2013-05-02 00:59:00,
2013-05-01 21:04:00,60.0,54.5,30.18,East,94,15.0,15.0,82,0.00,CLR,,0.00,0.0,WeatherDisplay:10.37,2013-05-02 01:04:00,
2013-05-01 21:09:00,60.1,54.6,30.19,NE,40,2.3,0.0,82,0.00,CLR,,0.00,0.0,WeatherDisplay:10.37,2013-05-02 01:09:00,
2013-05-01 21:14:00,60.1,54.2,30.19,NE,48,5.8,5.8,81,0.00,CLR,,0.00,0.0,WeatherDisplay:10.37,2013-05-02 01:14:00,
2013-05-01 21:19:00,60.0,54.2,30.19,ESE,113,4.0,4.0,81,0.00,CLR,,0.00,0.0,WeatherDisplay:10.37,2013-05-02 01:19:00,
2013-05-01 21:24:00,60.0,54.2,30.19,East,101,15.0,15.0,81,0.00,CLR,,0.00,0.0,WeatherDisplay:10.37,2013-05-02 01:24:00,
2013-05-01 21:29:00,60.0,54.2,30.19,East,84,6.9,6.9,81,0.00,CLR,,0.00,0.0,WeatherDisplay:10.37,2013-05-02 01:29:00,
2013-05-01 21:34:00,59.9,54.1,30.20,East,85,3.5,3.5,81,0.00,CLR,,0.00,0.0,WeatherDisplay:10.37,2013-05-02 01:34:00,
2013-05-01 21:39:00,59.8,54.3,30.20,East,92,4.6,4.6,82,0.00,CLR,,0.00,0.0,WeatherDisplay:10.37,2013-05-02 01:39:00,
2013-05-01 21:44:00,59.7,53.9,30.20,East,96,9.2,9.2,81,0.00,CLR,,0.00,0.0,WeatherDisplay:10.37,2013-05-02 01:44:00,
2013-05-01 21:49:00,59.7,54.2,30.20,ESE,107,9.2,9.2,82,0.00,CLR,,0.00,0.0,WeatherDisplay:10.37,2013-05-02 01:49:00,
2013-05-01 21:54:00,59.6,54.1,30.20,East,82,6.9,6.9,82,0.00,CLR,,0.00,0.0,WeatherDisplay:10.37,2013-05-02 01:54:00,
2013-05-01 21:59:00,59.5,54.0,30.21,SE,138,8.1,8.1,82,0.00,CLR,,0.00,0.0,WeatherDisplay:10.37,2013-05-02 01:59:00,
2013-05-01 22:04:00,59.4,54.2,30.21,East,100,5.8,5.8,83,0.00,CLR,,0.00,0.0,WeatherDisplay:10.37,2013-05-02 02:04:00,
2013-05-01 22:09:00,59.4,54.2,30.21,East,92,6.9,6.9,83,0.00,CLR,,0.00,0.0,WeatherDisplay:10.37,2013-05-02 02:09:00,
2013-05-01 22:14:00,59.3,54.1,30.21,ENE,76,11.5,11.5,83,0.00,CLR,,0.00,0.0,WeatherDisplay:10.37,2013-05-02 02:14:00,
2013-05-01 22:19:00,59.2,54.0,30.21,ESE,110,9.2,9.2,83,0.00,CLR,,0.00,0.0,WeatherDisplay:10.37,2013-05-02 02:19:00,
2013-05-01 22:24:00,59.2,54.0,30.21,East,97,4.6,4.6,83,0.00,CLR,,0.00,0.0,WeatherDisplay:10.37,2013-05-02 02:24:00,
2013-05-01 22:29:00,59.1,53.9,30.22,East,101,3.5,3.5,83,0.00,CLR,,0.00,0.0,WeatherDisplay:10.37,2013-05-02 02:29:00,
2013-05-01 22:34:00,59.1,54.3,30.22,ESE,119,6.0,6.0,84,0.00,CLR,,0.00,0.0,WeatherDisplay:10.37,2013-05-02 02:34:00,
2013-05-01 22:39:00,59.1,54.3,30.22,ESE,110,7.0,7.0,84,0.00,CLR,,0.00,0.0,WeatherDisplay:10.37,2013-05-02 02:39:00,
2013-05-01 22:44:00,59.2,54.4,30.22,ESE,115,7.0,7.0,84,0.00,CLR,,0.00,0.0,WeatherDisplay:10.37,2013-05-02 02:44:00,
2013-05-01 22:49:00,59.3,54.1,30.22,ESE,113,5.8,5.8,83,0.00,CLR,,0.00,0.0,WeatherDisplay:10.37,2013-05-02 02:49:00,
2013-05-01 22:54:00,59.3,54.1,30.22,East,88,6.9,6.9,83,0.00,CLR,,0.00,0.0,WeatherDisplay:10.37,2013-05-02 02:54:00,
2013-05-01 22:59:00,59.3,54.1,30.22,ESE,108,2.0,2.0,83,0.00,CLR,,0.00,0.0,WeatherDisplay:10.37,2013-05-02 02:59:00,
2013-05-01 23:04:00,59.4,54.2,30.22,East,85,10.4,10.4,83,0.00,CLR,,0.00,0.0,WeatherDisplay:10.37,2013-05-02 03:04:00,
2013-05-01 23:10:00,59.4,54.2,30.23,ESE,102,5.8,5.8,83,0.00,CLR,,0.00,0.0,WeatherDisplay:10.37,2013-05-02 03:10:00,
2013-05-01 23:15:00,59.4,54.6,30.23,East,101,10.0,10.0,84,0.00,CLR,,0.00,0.0,WeatherDisplay:10.37,2013-05-02 03:15:00,
2013-05-01 23:20:00,59.4,54.2,30.22,East,94,11.5,11.5,83,0.00,CLR,,0.00,0.0,WeatherDisplay:10.37,2013-05-02 03:20:00,
2013-05-01 23:25:00,59.4,54.6,30.22,ENE,68,9.2,9.2,84,0.00,CLR,,0.00,0.0,WeatherDisplay:10.37,2013-05-02 03:25:00,
2013-05-01 23:30:00,59.3,54.5,30.22,East,84,6.9,6.9,84,0.00,CLR,,0.00,0.0,WeatherDisplay:10.37,2013-05-02 03:30:00,
2013-05-01 23:35:00,59.3,54.5,30.23,East,96,11.5,11.5,84,0.00,CLR,,0.00,0.0,WeatherDisplay:10.37,2013-05-02 03:35:00,
2013-05-01 23:40:00,59.3,54.5,30.23,ENE,74,17.3,17.3,84,0.00,CLR,,0.00,0.0,WeatherDisplay:10.37,2013-05-02 03:40:00,
2013-05-01 23:45:00,59.3,54.5,30.23,ENE,77,12.0,12.0,84,0.00,CLR,,0.00,0.0,WeatherDisplay:10.37,2013-05-02 03:45:00,
2013-05-01 23:50:00,59.2,54.4,30.22,East,96,6.9,6.9,84,0.00,CLR,,0.00,0.0,WeatherDisplay:10.37,2013-05-02 03:50:00,
2013-05-01 23:55:00,59.2,54.4,30.22,ESE,115,11.5,11.5,84,0.00,CLR,,0.00,0.0,WeatherDisplay:10.37,2013-05-02 03:55:00,